Regional Weather Roundup
Issued by NWS Binghamton, NY

Home | Current Version | Previous Version | Text Only | Print | Product List | Glossary On
Versions: 1 2 3 4 5 6 7 8 9 10 11 12 13 14 15 16 17 18 19 20 21 22 23 24 25 26 27 28 29 30 31 32 33 34 35 36 37 38 39 40 41 42 43 44 45 46 47 48 49 50
000
ASUS41 KBGM 250610
RWRBGM

REGIONAL WEATHER ROUNDUP
NATIONAL WEATHER SERVICE BINGHAMTON NY
200 AM EDT THU AUG 25 2016

Note: "fair" indicates few or no clouds below 12,000 feet with no
significant weather and/or obstructions to visibility.

* = Station(s) that does not report precipitation, such as rain,
snow, etc, also no thunder or fog.

NYZ009-015>018-022>025-036-037-044>046-055>057-062-250700
...Central New York...

CITY           SKY/WX    TMP DP  RH WIND       PRES   REMARKS
Binghamton     CLEAR     68  61  78 S9        30.11F
Cortland       FAIR      70  63  78 SW7       30.09S
Dansville      MOCLDY    70  63  78 SE3       30.03F
Elmira         CLEAR     66  61  84 NW5       30.06F
Ithaca         NOT AVBL
Hamilton       CLEAR     66  61  82 SE5       30.09F
Hornell        CLEAR     66  63  88 SE5       30.08F
Monticello     CLEAR     61  57  88 CALM      30.17F
Norwich        CLEAR     63  59  88 CALM      30.10F
Oneonta        CLEAR     66  57  72 SW3       30.13F
Penn Yan       CLEAR     73  63  70 S8        30.04F
Rome           CLOUDY    72  62  71 VRB3      30.05F
Sidney         CLEAR     64  64 100 CALM      30.10F
Syracuse       PTCLDY    74  62  66 S12       30.01F
$$

PAZ038>040-043-044-047-048-072-250700
...Northeast Pennsylvania...

CITY           SKY/WX    TMP DP  RH WIND       PRES   REMARKS
Hazleton       CLEAR     66  63  88 S5        30.19F
Scranton       CLEAR     70  63  78 SW7       30.13F
$$
&&
KEY
WCI = Wind Chill Index
VSB = Visibility
HX  = Heat Index
$$



USA.gov is the U.S. government's official web portal to all federal, state and local government web resources and services.